ONEWEB-0294 (49083 NORAD) Tracking and Keplerian Element Data

This shows tracking and keplerian element data for the satellite.

Feedback or suggestion? Click here.




ElementValue
Catalog49083
NameONEWEB-0294
Epoch Orbit1142
Epoch Day300.91667824
Epoch Year2021
RAAN342.6279
Inclination87.2022
Eccentricity0.0024109
Argument of Perigee59.9153
Mean Anonmoly52.0372
Mean Motion14.84539597
Decay Rate0.00029391
L11 49083U 21075J 21300.91667824 .00029391 00000-0 34545-2 0 9995
L22 49083 87.2022 342.6279 0024109 59.9153 52.0372 14.84539597 11420

Live tracking and technical data element details for ONEWEB-0294 (NORAD 49083). ONEWEB-0294 can be tracked NOW for your location showing map with azimuth and elevation plus other details from your city location.

Track the satellite on the map from your city or location and see movement details for azimuth, elevation, latitude, longitude, range, height, and movement on the map or in text.







IsCatalogInMostPopularTable: catalog: 49083, numindb: 15
Update: records affected: 1



GetName: 49083 ONEWEB-0294

Hit Count: updated at: Thu, 28 Oct 2021 10:20:54 GMT